EW6113 Weather Reports


time (UTC)temp
F
wind
direction
speed
knots
gust
knots
rain 1hr
in
rain 24hr
in
rain mn
in
humidity
%
barometer
mb
20260506124523 47 75 0.0 1.7 0.00 0.00 0.00 95 1018.4
20260506123022 47 75 0.9 2.6 0.00 0.00 0.00 95 1018.5
20260506121523 47 304 0.0 0.9 0.00 0.00 0.00 95 1018.3
20260506120021 47 304 0.9 2.6 0.00 0.00 0.00 95 1017.9
20260506114521 47 304 0.9 2.6 0.00 0.00 0.00 95 1018.0
20260506113015 47 323 0.0 0.0 0.00 0.00 0.00 95 1018.2
20260506111513 48 345 0.0 0.0 0.00 0.00 0.00 95 1018.2
20260506110012 48 345 0.0 0.0 0.00 0.00 0.00 94 1018.3
20260506104510 48 345 0.0 0.0 0.00 0.00 0.00 94 1018.3
20260506103011 48 345 0.0 0.0 0.00 0.00 0.00 94 1018.3
20260506101508 49 345 0.0 0.0 0.00 0.00 0.00 94 1018.2
20260506100007 49 345 0.0 0.0 0.00 0.00 0.00 94 1018.2
20260506094506 49 345 0.0 0.0 0.00 0.00 0.00 93 1018.1
20260506093006 50 345 0.0 0.0 0.00 0.00 0.00 93 1018.1
20260506091501 50 345 0.0 0.9 0.00 0.00 0.00 94 1018.1
20260506090059 51 345 0.9 2.6 0.00 0.00 0.00 93 1018.2
20260506084557 51 345 0.0 1.7 0.00 0.00 0.00 93 1018.4
20260506083103 51 38 0.0 0.0 0.00 0.00 0.00 92 1018.2
20260506081556 52 38 0.0 0.0 0.00 0.00 0.00 92 1018.4
20260506073048 54 38 0.0 1.7 0.00 0.00 0.00 92 1018.3
20260506071547 54 47 0.9 4.3 0.00 0.00 0.00 92 1018.3
20260506061539 55 42 3.5 9.6 0.00 0.00 0.00 91 1017.7
20260506044532 55 87 1.7 4.3 0.00 0.00 0.00 90 1017.3
20260506043030 55 66 1.7 5.2 0.00 0.00 0.00 90 1017.1
20260506041528 55 65 1.7 5.2 0.00 0.00 0.00 90 1017.0
20260506040027 55 63 2.6 7.0 0.00 0.00 0.00 90 1016.8
20260506034526 56 63 1.7 6.1 0.00 0.00 0.00 89 1016.7
20260506033025 56 59 2.6 6.1 0.00 0.00 0.00 88 1016.6
20260506031525 56 66 2.6 8.7 0.00 0.00 0.00 87 1016.3
20260506030030 56 89 2.6 7.8 0.00 0.00 0.00 86 1016.1
20260506024539 57 106 5.2 9.6 0.00 0.00 0.00 85 1016.0
20260506023022 58 85 6.1 10.4 0.00 0.00 0.00 84 1015.8
20260506021522 58 87 4.3 10.4 0.00 0.00 0.00 84 1015.7
20260506020021 59 93 4.3 13.9 0.00 0.00 0.00 83 1015.7
20260506014523 59 110 8.7 11.3 0.00 0.00 0.00 82 1015.8
20260506013020 59 104 7.0 11.3 0.00 0.00 0.00 81 1015.8
20260506011520 59 81 6.1 11.3 0.00 0.00 0.00 79 1015.7
20260506010020 59 91 6.1 12.2 0.00 0.00 0.00 79 1015.7
20260506004518 59 99 6.1 13.0 0.00 0.00 0.00 78 1015.7
20260506003019 60 121 7.0 13.0 0.00 0.00 0.00 77 1015.7
20260506001519 60 84 7.0 13.0 0.00 0.00 0.00 76 1015.6
20260506000017 61 89 7.0 9.6 0.00 0.00 0.00 77 1015.6
20260505234526 61 96 8.7 13.9 0.00 0.00 0.00 76 1015.6
20260505233020 62 87 6.1 13.0 0.00 0.00 0.00 77 1015.7
20260505231516 61 109 7.8 14.8 0.00 0.00 0.00 77 1015.6
20260505230032 61 92 7.0 15.6 0.00 0.00 0.00 78 1015.7
20260505224515 62 101 7.0 15.6 0.00 0.00 0.00 75 1015.8
20260505223014 61 108 5.2 15.6 0.00 0.00 0.00 77 1015.9
20260505221513 61 88 8.7 13.9 0.00 0.00 0.00 75 1016.0
20260505220012 61 61 6.1 13.0 0.00 0.00 0.00 76 1016.1
20260505214512 61 65 8.7 14.8 0.00 0.00 0.00 75 1016.3
20260505213012 61 66 7.8 13.9 0.00 0.00 0.00 76 1016.4
20260505211513 61 92 5.2 13.9 0.00 0.00 0.00 76 1016.5
20260505210013 60 109 7.8 13.9 0.00 0.00 0.00 76 1016.5
20260505204508 60 126 8.7 16.5 0.00 0.00 0.00 75 1016.5
20260505203010 60 96 7.8 14.8 0.00 0.00 0.00 74 1016.5
20260505201512 61 111 5.2 12.2 0.00 0.00 0.00 74 1016.4
20260505200007 60 69 7.0 13.0 0.00 0.00 0.00 73 1016.5
20260505194506 59 101 7.8 12.2 0.00 0.00 0.00 74 1016.6
20260505193005 59 82 5.2 13.0 0.00 0.00 0.00 74 1016.5
20260505191507 60 103 7.0 12.2 0.00 0.00 0.00 73 1016.4
20260505190007 61 90 7.8 13.0 0.00 0.00 0.00 70 1016.4
20260505184502 61 51 5.2 14.8 0.00 0.00 0.00 71 1016.3
20260505183058 60 110 5.2 10.4 0.00 0.00 0.00 74 1016.3
20260505181557 59 94 5.2 12.2 0.00 0.00 0.00 72 1016.2
20260505180104 59 67 6.1 10.4 0.00 0.00 0.00 73 1016.0
20260505174609 59 78 4.3 13.0 0.00 0.00 0.00 70 1015.8
20260505173052 59 111 6.1 12.2 0.00 0.00 0.00 72 1015.8
20260505171552 59 84 5.2 10.4 0.00 0.00 0.00 76 1015.8
20260505170048 59 51 3.5 8.7 0.00 0.00 0.00 77 1015.8
20260505164550 58 65 3.5 8.7 0.00 0.00 0.00 77 1015.8
20260505163046 58 119 4.3 7.8 0.00 0.00 0.00 76 1015.8
20260505161550 58 115 4.3 7.8 0.00 0.00 0.00 79 1015.7
20260505153035 56 130 3.5 7.8 0.00 0.00 0.00 86 1015.3
20260505151531 55 57 0.0 3.5 0.00 0.00 0.00 91 1015.2